Location: Unspecified
(0.0000°N, 0.0000°E)
Time: 06:31:35
(UTC+00:00)

Hubble Space Telescope - Pass Details

Date: 29 November 2020
Orbit: 536 x 540 km, 28.5° (Epoch: 03 December)

Event Time Altitude Azimuth Distance (km) Brightness Sun altitude
Exits shadow 03:29:36 20° 92° (E) 1,277 3.2 -32.0°
Drops below altitude 10° 03:31:02 10° 102° (ESE) 1,782 4.2 -31.6°
Sets 03:33:23 0° 109° (ESE) 2,675 5.5 -31.1°
